This demonstration page uses our WeatherBlox Daily Observations layout. Learn more.

Left ArrowRight Arrow

Hourly Observations for January 18, 2022

Temp ( °F °C ) Dew Point ( °F °C ) Humidity (%) Winds ( mph kmh ) Pressure ( in mb ) Visibility ( mi km ) Precip ( " mm )
12:52 am 00:52 Clear 35 1.7 30 -1.1 82 82 SSE 13 20 29.98 1015 10 16 0.00 0.00
1:52 am 01:52 Clear 34 1.1 29 -1.7 82 82 S 10 17 29.98 1015 10 16 0.00 0.00
2:52 am 02:52 Clear 34 1.1 29 -1.7 82 82 S 12 19 29.97 1015 10 16 0.00 0.00
3:52 am 03:52 Clear 34 1.1 28 -2.2 79 79 SSE 13 20 29.95 1014 10 16 0.00 0.00
4:52 am 04:52 Clear 34 1.1 28 -2.2 79 79 SSE 15 24 29.94 1014 10 16 0.00 0.00
5:52 am 05:52 Clear 34 1.1 28 -2.2 79 79 SSE 15 24 29.94 1014 10 16 0.00 0.00
6:52 am 06:52 Clear 34 1.1 28 -2.2 79 79 SSE 17 28 29.93 1014 10 16 0.00 0.00
7:52 am 07:52 Sunny 34 1.1 28 -2.2 79 79 SSE 16 26 29.92 1013 10 16 0.00 0.00
8:52 am 08:52 Sunny 37 2.8 30 -1.1 76 76 SSE 14 22 29.92 1013 10 16 0.00 0.00
9:52 am 09:52 Sunny 42 5.6 32 0 68 68 S 15 24 29.91 1013 10 16 0.00 0.00
10:47 am 10:47 Hazy 46 8 34 1 62 62 S 16 26 29.91 1013 5 8 0.00 0.00
10:52 am 10:52 Sunny 47 8.3 33 0.6 59 59 S 17 28 29.90 1012 7 11 0.00 0.00
11:52 am 11:52 Sunny 50 10 34 1.1 54 54 S 15 24 29.86 1011 10 16 0.00 0.00
12:52 pm 12:52 Sunny 53 11.7 35 1.7 51 51 S 15 24 29.83 1010 10 16 0.00 0.00
1:52 pm 13:52 Sunny 55 12.8 36 2.2 49 49 S 15 24 29.80 1009 10 16 0.00 0.00
2:52 pm 14:52 Sunny 56 13.3 36 2.2 47 47 S 13 20 29.78 1008 10 16 0.00 0.00
3:52 pm 15:52 Sunny 56 13.3 37 2.8 49 49 S 13 20 29.77 1008 10 16 0.00 0.00
4:52 pm 16:52 Sunny 54 12.2 37 2.8 53 53 S 9 15 29.79 1009 10 16 0.00 0.00
5:52 pm 17:52 Clear 50 10 37 2.8 61 61 S 8 13 29.80 1009 10 16 0.00 0.00
6:52 pm 18:52 Clear 49 9.4 38 3.3 66 66 S 9 15 29.84 1010 10 16 0.00 0.00
7:52 pm 19:52 Clear 47 8.3 38 3.3 71 71 SSE 8 13 29.85 1011 10 16 0.00 0.00
8:52 pm 20:52 Clear 48 8.9 39 3.9 71 71 SSE 9 15 29.85 1011 10 16 0.00 0.00
9:52 pm 21:52 Clear 47 8.3 40 4.4 77 77 SSE 9 15 29.85 1011 10 16 0.00 0.00
10:52 pm 22:52 Mostly Clear 45 7.2 39 3.9 80 80 SSE 7 11 29.86 1011 10 16 0.00 0.00
11:52 pm 23:52 Clear 45 7.2 39 3.9 80 80 SSE 10 17 29.86 1011 10 16 0.00 0.00

Powered by AerisWeather